Location: *
(45.1961°N, 1.9694°E)
Time: 16:31:14
(UTC+00:00)

Nadezhda 2 Rocket - Pass Details

Date: 25 August 2019
Orbit: 947 x 1012 km, 82.9° (Epoch: 17 September)

Event Time Altitude Azimuth Distance (km) Brightness Sun altitude
Rises 19:07:03 0° 352° (N) 3,631 7.9 -4.9°
Reaches altitude 10° 19:09:33 10° 353° (N) 2,684 7.2 -5.3°
Maximum altitude 19:15:42 83° 81° (E) 969 4.5 -6.3°
Drops below altitude 10° 19:21:53 10° 171° (S) 2,697 6.5 -7.3°
Sets 19:24:23 0° 172° (S) 3,648 7.2 -7.7°
